Community: Exchange advice in the forums and read running commentary Resources: Personal running log, calculators, links and other tools for runners News: Running news from around the world Training: Articles and advice about fitness, race training and injury prevention Races/Results: Find upcoming races and past results Home: The Cool Running homepage

Cool Running homepage
events
Maine Event Spotlights
Find Events
Find Results
Race Directors

Race directors: Promote your event
Discover how Cool Running can help you.

Add to our calendar
Submit your race to our event calendar.

Submit race results
Add race results to our results section.

Instant Ads
Pay-Per-Click Ads on Active.com  
   
> Printer-friendly page

Weekly Back Cove 5K

Portland, ME, May 26, 2010

Overall

Back Cove 5k Race Series

2010 Back Cove Weekly Series

Week 3 (2010-05-26)

Weather: 65 degrees, breezy, nice
Place Time Bib Name
1 00:17:11 442 Noah Schoneberg
2 00:17:22 432 Ron Wayne
3 00:17:49 449 Matt Lane
4 00:18:24 445 Tom Ryan
5 00:18:32 216 Kevin McDonough
6 00:18:44 359 Tyler Littlefield
7 00:18:46 437 Dave Tucker
8 00:18:47 362 aaron chelate
9 00:18:50 215 Stephen Desjardins
10 00:19:13 374 Eric Friend
11 00:19:25 376 Rob Sickel
12 00:19:49 167 Michael Cwiklinski
13 00:19:49 347 Colin Beckman
14 00:20:15 354 Scott Potter
15 00:20:24 434 Paul Hendry
16 00:20:26 186 Kyle Simmons
17 00:20:27 156 Vincent DiYenno
18 00:20:36 455 Ben Crenshaw
19 00:20:37 446 Larry Bruni
20 00:20:44 373 Ben Hewes
21 00:20:58 251 Jeff Walker
22 00:21:01 42 Ronald Hunt
23 00:21:02 172 Edward Muennich
24 00:20:10 383 Kyle Purinton
25 00:21:11 140 Derek J. Veilleux
26 00:21:16 396 ryan griffiths
27 00:21:16 10 Joshua Lundin
28 00:21:26 255 Dominic Tracey
29 00:21:28 402 Dan Dube
30 00:21:37 367 Kelly Nichols
31 00:21:38 129 Randall Woods
32 00:21:39 248 Darren Winchenbach
33 00:21:50 9 Emilio Millan
34 00:21:51 443 Joe Tomazin
35 00:21:55 39 Gregory Lull
36 00:21:57 1 Blaine Moore
37 00:22:02 81 David Benham
38 00:22:08 280 Dave Manz
39 00:22:18 433 Mike Erskine
40 00:22:26 91 Jim Toulouse
41 00:22:31 450 Rich McCauley
42 00:22:33 75 Travis Kinney
43 00:22:34 295 Ryan O'Hara
44 00:22:46 303 Christy McAllaster
45 00:23:04 254 Brad Genest
46 00:23:09 20 Zach Olbrych
47 00:23:13 0 {unknown runner}
48 00:23:14 159 daniel simonitis
49 00:23:16 451 David Brown
50 00:23:18 290 Donna Gaudet
51 00:23:18 463 John Lloyd
52 00:23:19 321 T.J. Tigerman
53 00:23:19 23 carl moulton
54 00:23:26 227 Jenelle Pothier
55 00:23:26 97 Matthew Bolduc
56 00:23:30 435 Lou Christen
57 00:23:33 465 Michael Jones
58 00:23:34 352 Patrick Lewis
59 00:23:42 461 Aaron Leeman
60 00:23:42 274 Erin Kenaley
61 00:23:46 143 Dominic Hebert
62 00:23:51 201 Eric Brackett
63 00:23:53 406 Jim Hettenbach
64 00:23:56 117 Michael Rideout
65 00:23:57 19 michael beaudoin
66 00:24:02 447 Jeremy Ferris
67 00:24:03 420 David Colby Young
68 00:24:17 92 Alec Libby
69 00:24:24 377 Cait Wilson
70 00:00:00 37 Chuck Cannone
71 00:24:27 268 Brad Pattershall
72 00:24:36 436 Dan Skwire
73 00:24:49 458 Heidi Packard
74 00:24:54 389 Jason Beseda
75 00:24:57 77 Sandra Goff
76 00:24:59 165 Maureen McInnis
77 00:25:09 197 Jim Mooney
78 00:25:10 57 Peter Cole
79 00:25:11 150 Amy Simpson
80 00:25:12 399 Abbey Collins
81 00:25:15 298 David Cimato
82 00:25:17 8 Nathan Augustine
83 00:25:19 404 Tom Button
84 00:25:24 131 Shawn Smith
85 00:25:25 213 David Chadbourne
86 00:25:27 452 Darby Cooper
87 00:25:28 453 Pete Peters
88 00:25:29 47 Jason Young
89 00:25:36 419 Rebecca Leaming
90 00:25:36 459 Robyn Boudewija
91 00:25:40 358 David Levi
92 00:25:42 448 Christopher Lambert
93 00:25:44 62 Ria Chavez
94 00:25:48 454 Joanna Piepgrass
95 00:25:51 357 Rebekah Sirois
96 00:25:51 222 Roberto Brandao
97 00:25:52 146 Nancy Kneeland
98 00:25:59 142 Alan Ozarowski
99 00:26:10 456 Anna Messinger
100 00:26:11 439 Roseann McConnell
101 00:26:19 287 Andrew Word
102 00:26:25 289 Doug Hekl
103 00:26:31 198 Jennifer Baroody
104 00:26:31 30 Julianne Baroody
105 00:26:34 400 Sarah Brann
106 00:26:44 12 Margaritt McNulty
107 00:26:46 158 nancy miller
108 00:26:49 136 Don Fowler
109 00:26:53 460 John Hill
110 00:26:55 124 Will Zurkan
111 00:26:56 98 Bruce Webber
112 00:26:56 13 Richard Dawson
113 00:27:06 170 Catherine Wilson
114 00:27:07 43 Paul Griffin
115 00:27:10 431 Craig Whiton
116 00:27:11 229 Sean Keough
117 00:27:12 401 Sarah Boucher
118 00:27:19 252 Jenn Emmaluth
119 00:27:20 292 Paul Ainsworth
120 00:27:34 130 Kate Philbrick
121 00:27:34 403 Keith Anderson
122 00:27:36 132 Jacquelyn Borlawsky
123 00:27:38 438 Michelle Whiting
124 00:27:40 444 Kellie Stratton
125 00:27:44 188 Catherine Hjort
126 00:27:44 224 Peter Lyons
127 00:27:45 32 Ashley Peterson
128 00:27:49 43 Paul Griffin
129 00:27:51 235 Dave Courtney
130 00:27:54 127 robyn brown
131 00:27:54 414 Scott Reoch
132 00:27:56 196 Rob Foley
133 00:27:58 114 Samuel Gile
134 00:28:00 218 Andrea Doughty
135 00:28:03 394 Frank Wright
136 00:28:21 397 lindsey guerrette
137 00:28:22 423 Alicia Owens
138 00:28:22 234 Jess Sheldon
139 00:28:24 388 Todd Turkewitz
140 00:28:27 96 Bill Brewington
141 00:28:28 116 Rob Reed
142 00:28:34 415 Bjorn Swenson
143 00:28:53 276 Pete Morrill
144 00:28:53 195 Denise Morrill
145 00:29:03 381 Allen Huntington
146 00:29:09 171 Anne Curtis
147 00:29:11 262 Katy Nicketakis
148 00:29:23 49 Paul Boutin
149 00:29:24 279 Donna Boudreau
150 00:29:33 369 Ruth Olbrych
151 00:29:44 139 abigail cram
152 00:29:58 392 Eliza Gray
153 00:30:02 181 Elizabeth Palmer
154 00:30:06 242 Fred Kilfoil
155 00:30:07 256 Joanie Lavey-McLaughlin
156 00:30:08 257 Emelia McLaughlin
157 00:30:11 258 Allyn Genest
158 00:30:13 125 Jeffrey Edwards
159 00:30:21 211 Lori Thomas
160 00:30:28 405 jillian cascio
161 00:30:37 318 Nicole Dunbar
162 00:30:37 193 Ginger Reoch
163 00:30:48 430 Hezzie Snowe
164 00:31:01 209 Christopher LaPointe
165 00:31:08 144 Robert Smith
166 00:31:12 440 Dan Reed
167 00:31:12 441 Adam Temple
168 00:31:25 462 Kirsten Ness
169 00:31:42 426 Jim Prosser
170 00:31:45 457 Karen Morrison
171 00:31:46 464 Tristan Lonara
172 00:31:47 180 Colby Derrig
173 00:31:48 351 Sara Campbell
174 00:31:50 422 Talia Timmins
175 00:31:54 210 Sasha Chipman
176 00:31:59 368 Elizabeth McDuffie
177 00:31:59 408 Laurie Bragg
178 00:32:02 40 Abigail Raymond
179 00:32:19 416 Melissa Riley
180 00:32:20 387 Kylie Mason
181 00:32:20 409 Mike Mason
182 00:32:23 17 Bill Green
183 00:32:36 250 Adrienne Wilson
184 00:32:39 316 Tonya Fowler
185 00:32:52 296 Katarina Kuzmara
186 00:33:15 424 Amy Daly
187 00:33:29 212 Heather Laverriere
188 00:33:33 0 {unknown runner}
189 00:33:54 418 Michael Brown
190 00:33:56 282 Jay Wilson
191 00:34:09 421 Lauren McFarland
192 00:34:13 361 Heather Bennett
193 00:34:56 360 Tim Chick
194 00:35:52 340 Kristine Hanly
195 00:35:56 363 Laurie Cook
196 00:35:56 160 Susan Marshall
197 00:36:14 225 Kristine Gile
198 00:36:31 269 Mariah Cunningham
199 00:36:57 145 Harry Hunt
200 00:37:15 100 Eva Matteson
201 00:37:28 230 Terry Keough
202 00:37:33 417 Katherine Franck
203 00:37:51 339 Blaise Maccarrone
204 00:38:35 11 Shannon Garrity
205 00:38:47 283 Jessie Allen
206 00:41:12 14 Isabelle Johnson
207 00:41:12 325 Riley Johnson
208 00:43:48 176 Eric Ellis
209 00:48:59 326 Eden Johnson
210 00:48:59 15 Adam Johnson
211 00:50:54 194 Katherine Hopkins
212 00:52:33 312 Michelle Ames



My ACTIVE
Help
Post a Race
Submit Results
Advertise

Training Log
Forums


   

Copyright © 2013 Active Network, Inc. | About Us | Terms of Use | Your Privacy Rights | Support
Cool Running Facebook Facebook | Cool Running Twitter Twitter | Newsletter Subscription | News Feed Subscription | WannaDo
Race Directors | Running Events | Race Results | Running Tips | Pace Calculator | Couch to 5K | Running Forum | Running News